Home   Weather   Jyväskylä   Past weeks

Flag for Finland Past Weather in Jyväskylä, Finland — Yesterday and Last 2 Weeks

Now
52 °F

Overcast.


Feels Like: 50 °F
Forecast: 47 / 58 °F
Wind: 6 mph from South

Location: Jyvaskyla Airport

Current Time: Sep 25, 2016 at 1:43:00 PM

Latest Report: Sep 25, 2016 at 1:20 PM


Visibility: N/A

Pressure: 30.12 "Hg

Humidity: 94%

Dew Point: 50 °F

Location of JyväskyläLocation

Past Weather in Jyväskylä — Graph

°F

Jyväskylä Temperature Yesterday

Maximum temperature yesterday: 48 °F (at 11:50 AM)
Minimum temperature yesterday: 45 °F (at 12:20 AM)
Average temperature yesterday: 46 °F

High & Low Weather Summary for the Past Weeks

 TemperatureHumidityPressure
High66 °F (Sep 11, 2:50 PM)100% (Sep 10, 12:20 PM)30.27 "Hg (Sep 10, 12:20 PM)
Low30 °F (Sep 18, 5:20 AM)45% (Sep 12, 3:20 PM)29.80 "Hg (Sep 11, 9:50 PM)
Average48 °F82%30.09 "Hg
* Reported Sep 10 12:20 PM — Sep 25 12:20 PM, Jyväskylä, Weather by CustomWeather, © 2016

Note: Actual official high and low records may vary slightly from our data, if they occured in-between our weather recording intervals... More about our weather records

Advertising

Jyväskylä Weather History for the Previous 24 Hours

Scroll right to see more
 ConditionsComfort  
Time TempWeatherWind HumidityBarometerVisibility
12:20 PM
Sun, Sep 25
50 °FLight rain. Partly sunny.5 mph94%30.12 "HgN/A
11:50 AM50 °FLight rain. Low clouds.5 mph94%30.12 "HgN/A
11:20 AM50 °FLight rain. Low clouds.5 mph94%30.12 "HgN/A
10:50 AM50 °FLight rain. Low clouds.5 mph94%30.12 "HgN/A
10:20 AM50 °FLight rain. Low clouds.5 mph94%30.12 "HgN/A
9:50 AM48 °FLight rain. Low clouds.3 mph94%30.12 "HgN/A
9:20 AM48 °FLight rain. Low clouds.3 mph94%30.12 "HgN/A
8:50 AM48 °FLight rain. Low clouds.3 mph94%30.12 "HgN/A
8:20 AM48 °FLow clouds.3 mph94%30.12 "HgN/A
7:50 AM48 °FLow clouds.3 mph94%30.09 "HgN/A
7:20 AM46 °FLow clouds.5 mph100%30.09 "HgN/A
6:50 AM46 °FLow clouds.3 mph93%30.09 "HgN/A
6:20 AM46 °FSprinkles. Low clouds.3 mph93%30.09 "HgN/A
5:50 AM46 °FSprinkles. Low clouds.3 mph93%30.12 "HgN/A
5:20 AM45 °FLow clouds.3 mph100%30.09 "HgN/A
4:50 AM45 °FFog.5 mph100%30.09 "Hg2 mi
4:20 AM45 °FLow clouds.3 mph93%30.09 "HgN/A
3:50 AM43 °FSprinkles. Low clouds.3 mph100%30.09 "HgN/A
3:20 AM43 °FFog.2 mph100%30.09 "Hg2 mi
2:50 AM45 °FOvercast.2 mph87%30.09 "HgN/A
2:20 AM45 °FOvercast.2 mph87%30.09 "HgN/A
1:50 AM45 °FOvercast.3 mph87%30.09 "HgN/A
1:20 AM45 °FOvercast.1 mph81%30.09 "HgN/A
12:50 AM45 °FOvercast.2 mph81%30.09 "HgN/A
12:20 AM45 °FOvercast.2 mph81%30.09 "HgN/A
11:50 PM
Sat, Sep 24
45 °FOvercast.2 mph81%30.09 "HgN/A
11:20 PM45 °FOvercast.3 mph81%30.09 "HgN/A
10:50 PM45 °FOvercast.5 mph81%30.07 "HgN/A
10:20 PM46 °FOvercast.5 mph76%30.07 "HgN/A
9:50 PM46 °FOvercast.5 mph82%30.07 "HgN/A
9:20 PM46 °FOvercast.3 mph87%30.07 "HgN/A
8:50 PM46 °FOvercast.3 mph87%30.07 "HgN/A
8:20 PM46 °FOvercast.3 mph87%30.07 "HgN/A
7:50 PM46 °FOvercast.5 mph87%30.07 "HgN/A
7:20 PM46 °FOvercast.6 mph87%30.07 "HgN/A
6:50 PM46 °FOvercast.8 mph87%30.04 "HgN/A
6:20 PM46 °FOvercast.8 mph87%30.04 "HgN/A
5:50 PM46 °FSprinkles. Overcast.9 mph87%30.01 "HgN/A
5:20 PM48 °FOvercast.9 mph82%30.01 "HgN/A
4:50 PM48 °FOvercast.7 mph82%30.01 "HgN/A
4:20 PM48 °FOvercast.7 mph82%30.01 "HgN/A
3:50 PM48 °FSprinkles. Overcast.9 mph82%29.98 "HgN/A
3:20 PM48 °FOvercast.9 mph82%29.98 "HgN/A
2:50 PM48 °FOvercast.7 mph82%29.98 "HgN/A
2:20 PM48 °FOvercast.9 mph82%29.98 "HgN/A
1:50 PM48 °FOvercast.12 mph82%29.98 "HgN/A
1:20 PM48 °FOvercast.12 mph82%29.95 "HgN/A
Weather by CustomWeather, © 2016

See weather overviewHow to use our weather pages